EW8829 Weather Reports


time (UTC)temp
F
wind
direction
speed
knots
gust
knots
rain 1hr
in
rain 24hr
in
rain mn
in
humidity
%
barometer
mb
20260504034739 46 76 0.0 0.9 0.00 0.00 0.00 72 1009.2
20260504034236 46 135 0.0 1.7 0.00 0.00 0.00 72 1009.1
20260504033734 46 110 0.0 1.7 0.00 0.00 0.00 72 1009.3
20260504033231 46 166 0.0 0.9 0.00 0.00 0.00 74 1009.3
20260504032728 46 219 0.0 1.7 0.00 0.00 0.00 73 1009.3
20260504032225 46 67 1.7 2.6 0.00 0.00 0.00 74 1009.2
20260504031722 46 340 1.7 1.7 0.00 0.00 0.00 75 1009.3
20260504031219 46 308 0.0 1.7 0.00 0.00 0.00 77 1009.3
20260504030715 46 31 0.0 0.9 0.00 0.00 0.00 75 1009.0
20260504030212 46 65 1.7 2.6 0.00 0.00 0.00 75 1009.1
20260504025709 46 66 0.9 0.9 0.00 0.00 0.00 75 1009.4
20260504025205 46 63 0.0 1.7 0.00 0.00 0.00 75 1009.4
20260504024703 46 106 1.7 2.6 0.00 0.00 0.00 74 1009.2
20260504024159 46 72 1.7 1.7 0.00 0.00 0.00 74 1009.4
20260504023655 46 44 0.0 1.7 0.00 0.00 0.00 74 1009.5
20260504023152 46 93 1.7 2.6 0.00 0.00 0.00 73 1009.5
20260504022648 46 39 2.6 2.6 0.00 0.00 0.00 73 1009.6
20260504022144 46 38 1.7 3.5 0.00 0.00 0.00 71 1009.6
20260504021642 47 64 2.6 2.6 0.00 0.00 0.00 70 1009.7
20260504021138 47 55 0.0 0.9 0.00 0.00 0.00 71 1009.6
20260504020636 47 38 1.7 1.7 0.00 0.00 0.00 70 1009.5
20260504020132 46 72 0.0 1.7 0.00 0.00 0.00 68 1009.5
20260504015628 47 92 1.7 2.6 0.00 0.00 0.00 68 1009.7
20260504015125 46 80 0.9 1.7 0.00 0.00 0.00 70 1009.4
20260504014620 46 77 0.9 1.7 0.00 0.00 0.00 70 1009.5
20260504014118 47 69 1.7 1.7 0.00 0.00 0.00 67 1009.4
20260504013615 47 83 0.9 1.7 0.00 0.00 0.00 66 1009.3
20260504013112 47 93 0.0 0.9 0.00 0.00 0.00 66 1009.4
20260504012609 47 63 0.0 0.9 0.00 0.00 0.00 64 1009.1
20260504012107 47 35 0.9 1.7 0.00 0.00 0.00 63 1009.2
20260504011604 47 50 0.9 1.7 0.00 0.00 0.00 63 1009.2
20260504011100 48 77 0.9 1.7 0.00 0.00 0.00 64 1009.2
20260504010555 48 58 0.9 1.7 0.00 0.00 0.00 61 1009.2
20260504010052 49 37 0.9 1.7 0.00 0.00 0.00 60 1009.1
20260504005549 49 348 0.0 1.7 0.00 0.00 0.00 59 1009.3
20260504005046 49 5 0.9 1.7 0.00 0.00 0.00 59 1008.7
20260504004544 49 333 1.7 2.6 0.00 0.00 0.00 61 1008.8
20260504004041 49 49 1.7 2.6 0.00 0.00 0.00 59 1009.0
20260504003537 50 32 1.7 2.6 0.00 0.00 0.00 62 1009.0
20260504003034 50 65 1.7 1.7 0.00 0.00 0.00 58 1008.9
20260504002531 51 108 1.7 1.7 0.00 0.00 0.00 58 1008.8
20260504002028 51 341 0.9 1.7 0.00 0.00 0.00 58 1008.7
20260504001526 51 86 1.7 2.6 0.00 0.00 0.00 54 1008.6
20260504001022 51 39 1.7 1.7 0.00 0.00 0.00 60 1008.5
20260504000520 51 39 0.0 0.9 0.00 0.00 0.00 56 1008.4
20260504000017 51 15 0.0 1.7 0.00 0.00 0.00 58 1008.3
20260503235515 52 13 0.0 0.9 0.00 0.00 0.00 59 1008.1
20260503235011 52 77 0.0 0.9 0.00 0.00 0.00 53 1008.3
20260503234509 53 58 0.0 0.9 0.00 0.00 0.00 49 1008.3
20260503234007 53 352 0.0 0.9 0.00 0.00 0.00 47 1008.2
20260503233503 54 44 0.0 1.7 0.00 0.00 0.00 46 1008.2
20260503232959 55 227 1.7 1.7 0.00 0.00 0.00 43 1008.1
20260503232456 55 30 1.7 1.7 0.00 0.00 0.00 43 1008.2
20260503231954 55 157 0.9 1.7 0.00 0.00 0.00 43 1007.9
20260503231452 55 215 0.0 3.5 0.00 0.00 0.00 42 1008.2
20260503230948 55 239 3.5 5.2 0.00 0.00 0.00 40 1008.3
20260503230444 55 135 2.6 2.6 0.00 0.00 0.00 44 1008.0
20260503225942 55 82 1.7 3.5 0.00 0.00 0.00 43 1008.2
20260503225439 55 261 0.9 2.6 0.00 0.00 0.00 42 1008.4
20260503224934 56 167 1.7 4.3 0.00 0.00 0.00 42 1008.2
20260503224431 55 225 1.7 3.5 0.00 0.00 0.00 42 1008.5
20260503223929 55 336 1.7 4.3 0.00 0.00 0.00 41 1008.2
20260503223427 55 285 2.6 5.2 0.00 0.00 0.00 41 1008.3
20260503222922 56 32 0.0 2.6 0.00 0.00 0.00 42 1008.2
20260503222421 56 112 1.7 2.6 0.00 0.00 0.00 43 1008.5
20260503221919 55 9 0.0 2.6 0.00 0.00 0.00 45 1008.4
20260503221417 55 110 1.7 2.6 0.00 0.00 0.00 45 1008.4
20260503220913 55 16 3.5 4.3 0.00 0.00 0.00 42 1008.3
20260503220410 56 340 1.7 3.5 0.00 0.00 0.00 40 1008.4
20260503215907 58 320 1.7 2.6 0.00 0.00 0.00 41 1008.4
20260503215404 56 356 1.7 4.3 0.00 0.00 0.00 40 1008.5
20260503214901 56 311 2.6 2.6 0.00 0.00 0.00 40 1008.5
20260503214358 56 296 1.7 5.2 0.00 0.00 0.00 43 1008.6
20260503213856 56 268 5.2 11.3 0.00 0.00 0.00 40 1008.5
20260503213354 57 200 1.7 5.2 0.00 0.00 0.00 40 1008.7
20260503212850 57 299 2.6 5.2 0.00 0.00 0.00 39 1008.5
20260503212348 56 249 2.6 4.3 0.00 0.00 0.00 40 1008.5
20260503211845 57 265 7.0 13.0 0.00 0.00 0.00 40 1008.5
20260503211342 56 115 2.6 4.3 0.00 0.00 0.00 43 1008.6
20260503210837 56 278 5.2 5.2 0.00 0.00 0.00 42 1008.5
20260503210334 56 331 2.6 9.6 0.00 0.00 0.00 41 1008.4
20260503205829 56 136 3.5 5.2 0.00 0.00 0.00 45 1008.5
20260503205326 55 325 0.0 3.5 0.00 0.00 0.00 44 1008.8
20260503204823 54 256 6.1 7.0 0.00 0.00 0.00 45 1008.8
20260503204320 53 70 7.0 12.2 0.00 0.00 0.00 46 1008.9
20260503203817 53 14 4.3 14.8 0.00 0.00 0.00 46 1008.9
20260503203315 54 238 3.5 9.6 0.00 0.00 0.00 42 1008.8
20260503202811 54 299 4.3 15.6 0.00 0.00 0.00 41 1008.6
20260503202310 54 14 0.9 6.1 0.00 0.00 0.00 41 1008.8
20260503201807 54 67 0.0 7.8 0.00 0.00 0.00 44 1008.7
20260503201304 55 263 10.4 11.3 0.00 0.00 0.00 40 1008.8
20260503200802 55 9 1.7 4.3 0.00 0.00 0.00 40 1008.7
20260503200257 55 344 2.6 4.3 0.00 0.00 0.00 38 1008.6
20260503195755 55 314 3.5 6.1 0.00 0.00 0.00 38 1008.5
20260503195251 56 350 2.6 3.5 0.00 0.00 0.00 38 1008.5
20260503194749 58 281 3.5 4.3 0.00 0.00 0.00 35 1008.6
20260503194244 57 314 2.6 5.2 0.00 0.00 0.00 37 1008.8
20260503193741 56 255 5.2 8.7 0.00 0.00 0.00 34 1008.9
20260503193237 55 281 5.2 13.9 0.00 0.00 0.00 36 1008.9
20260503192733 55 259 9.6 10.4 0.00 0.00 0.00 36 1008.8
20260503192228 55 11 3.5 4.3 0.00 0.00 0.00 37 1008.9
20260503191725 56 142 1.7 11.3 0.00 0.00 0.00 36 1008.8
20260503191222 55 332 5.2 9.6 0.00 0.00 0.00 35 1008.9
20260503190719 55 17 1.7 6.1 0.00 0.00 0.00 36 1008.8
20260503190215 55 83 3.5 6.1 0.00 0.00 0.00 35 1008.9
20260503185713 57 227 4.3 10.4 0.00 0.00 0.00 33 1009.0
20260503185208 56 344 1.7 4.3 0.00 0.00 0.00 37 1009.2
20260503184703 57 200 3.5 5.2 0.00 0.00 0.00 39 1009.1
20260503184200 55 24 4.3 8.7 0.00 0.00 0.00 37 1009.3
20260503183656 57 40 2.6 4.3 0.00 0.00 0.00 37 1009.4
20260503183153 56 191 5.2 13.9 0.00 0.00 0.00 35 1008.9
20260503182651 57 28 2.6 4.3 0.00 0.00 0.00 32 1009.3
20260503182150 56 301 4.3 7.0 0.00 0.00 0.00 37 1009.3
20260503181646 54 18 2.6 5.2 0.00 0.00 0.00 40 1009.7
20260503181143 56 317 4.3 10.4 0.00 0.00 0.00 33 1009.4
20260503180640 56 72 3.5 8.7 0.00 0.00 0.00 40 1009.4
20260503180138 55 55 2.6 10.4 0.00 0.00 0.00 37 1009.6
20260503175635 53 74 3.5 5.2 0.00 0.00 0.00 37 1009.6
20260503175132 53 313 4.3 7.8 0.00 0.00 0.00 35 1009.8
20260503174628 55 295 2.6 11.3 0.00 0.00 0.00 39 1010.0
20260503174126 54 25 5.2 7.0 0.00 0.00 0.00 41 1009.9
20260503173620 53 69 5.2 6.1 0.00 0.00 0.00 39 1010.2
20260503173117 52 118 5.2 9.6 0.00 0.00 0.00 37 1010.2
20260503172614 51 10 4.3 7.8 0.00 0.00 0.00 39 1010.2
20260503172112 54 7 2.6 4.3 0.00 0.00 0.00 38 1010.3
20260503171608 54 309 2.6 2.6 0.00 0.00 0.00 42 1010.4
20260503171105 52 92 3.5 5.2 0.00 0.00 0.00 39 1010.4
20260503170601 52 293 7.8 14.8 0.00 0.00 0.00 40 1010.3
20260503150954 51 84 2.6 7.8 0.00 0.00 0.00 42 1011.6
20260503150450 48 63 5.2 10.4 0.00 0.00 0.00 40 1011.6
20260503131343 45 345 1.7 7.8 0.00 0.00 0.00 49 1011.8
20260503130841 45 18 2.6 5.2 0.00 0.00 0.00 51 1012.0
20260503130338 46 340 4.3 10.4 0.00 0.00 0.00 50 1012.1
20260503110732 37 24 1.7 2.6 0.00 0.00 0.00 86 1011.8
20260503110229 37 54 1.7 2.6 0.00 0.00 0.00 84 1011.8
20260503100155 35 55 0.9 1.7 0.00 0.00 0.00 94 1011.2
20260503090115 35 64 0.9 1.7 0.00 0.00 0.00 93 1010.8
20260503081550 35 68 0.9 1.7 0.00 0.00 0.00 90 1010.7
20260503081048 35 73 1.7 1.7 0.00 0.00 0.00 90 1010.7
20260503080544 35 65 0.9 1.7 0.00 0.00 0.00 89 1010.6
20260503072517 35 68 0.9 1.7 0.00 0.00 0.00 91 1010.7
20260503072014 35 77 1.7 1.7 0.00 0.00 0.00 90 1010.6
20260503071511 36 62 1.7 1.7 0.00 0.00 0.00 90 1010.7
20260503071008 36 78 1.7 1.7 0.00 0.00 0.00 88 1010.7
20260503070505 36 62 0.0 1.7 0.00 0.00 0.00 88 1010.7
20260503054928 35 63 1.7 1.7 0.00 0.00 0.00 87 1010.9
20260503054424 36 60 1.7 1.7 0.00 0.00 0.00 87 1011.3
20260503053922 36 75 1.7 1.7 0.00 0.00 0.00 87 1011.3
20260503053420 36 73 1.7 1.7 0.00 0.00 0.00 87 1011.4
20260503052916 36 72 1.7 1.7 0.00 0.00 0.00 86 1011.3
20260503052414 36 73 1.7 2.6 0.00 0.00 0.00 86 1011.6
20260503051910 37 121 0.0 0.9 0.00 0.00 0.00 86 1011.6
20260503051406 36 57 1.7 1.7 0.00 0.00 0.00 87 1011.5
20260503050903 37 77 1.7 1.7 0.00 0.00 0.00 86 1011.5
20260503050359 37 31 0.9 1.7 0.00 0.00 0.00 85 1011.7
20260503045857 37 48 1.7 2.6 0.00 0.00 0.00 85 1011.8
20260503045354 37 56 1.7 1.7 0.00 0.00 0.00 85 1011.8
20260503044851 37 36 1.7 1.7 0.00 0.00 0.00 84 1012.0
20260503044348 37 58 1.7 1.7 0.00 0.00 0.00 84 1011.9
20260503043845 37 86 1.7 1.7 0.00 0.00 0.00 84 1011.8
20260503043342 37 85 1.7 2.6 0.00 0.00 0.00 83 1011.9
20260503042838 37 43 0.9 1.7 0.00 0.00 0.00 83 1012.0
20260503042335 37 31 0.9 1.7 0.00 0.00 0.00 83 1012.2
20260503041830 37 63 1.7 1.7 0.00 0.00 0.00 82 1012.2
20260503041328 37 62 1.7 2.6 0.00 0.00 0.00 82 1012.1
20260503040826 37 50 1.7 2.6 0.00 0.00 0.00 81 1012.1
20260503040323 37 62 0.9 1.7 0.00 0.00 0.00 80 1012.1
20260503035820 38 34 0.9 1.7 0.00 0.00 0.00 80 1012.0
20260503035317 37 315 0.0 1.7 0.00 0.00 0.00 80 1012.1